This is the latest recevied weather packets stored in our database for station/object F4ETJ-1. If no packets are shown the sender has not sent any weather packets the latest 10 day(s).
| Time | Temp. | Humidity | Pressure | Rain* | Wind** | Luminosity | Snow |
|---|---|---|---|---|---|---|---|
| 1787678727 | 25° C | 66% | 1010.1 hPa | 0 mm | - | - | - |
| 1787678367 | 25.56° C | 66% | 1010.1 hPa | 0 mm | - | - | - |
| 1787678006 | 25° C | 67% | 1010 hPa | 0 mm | - | - | - |
| 1787677646 | 25° C | 67% | 1009.9 hPa | 0 mm | - | - | - |
| 1787677285 | 25.56° C | 65% | 1009.9 hPa | 0 mm | - | - | - |
| 1787676925 | 25.56° C | 66% | 1009.9 hPa | 0 mm | - | - | - |
| 1787676565 | 25.56° C | 67% | 1009.9 hPa | 0 mm | - | - | - |
| 1787676204 | 25.56° C | 65% | 1009.9 hPa | 0 mm | - | - | - |
| 1787675844 | 26.67° C | 63% | 1009.7 hPa | 0 mm | - | - | - |
| 1787675484 | 26.67° C | 62% | 1009.8 hPa | 0 mm | - | - | - |
| 1787675123 | 27.22° C | 61% | 1009.8 hPa | 0 mm | - | - | - |
| 1787674763 | 26.67° C | 64% | 1009.9 hPa | 0 mm | - | - | - |
| 1787674403 | 26.11° C | 61% | 1009.8 hPa | 0 mm | - | - | - |
| 1787674042 | 26.67° C | 61% | 1009.7 hPa | 0 mm | - | - | - |
| 1787673682 | 26.67° C | 59% | 1009.7 hPa | 0 mm | - | - | - |
| 1787673322 | 26.67° C | 58% | 1009.7 hPa | 0 mm | - | - | - |
| 1787672961 | 27.22° C | 56% | 1009.7 hPa | 0 mm | - | - | - |
| 1787672601 | 27.78° C | 55% | 1009.7 hPa | 0 mm | - | - | - |
| 1787672241 | 27.22° C | 54% | 1009.7 hPa | 0 mm | - | - | - |
| 1787671880 | 26.67° C | 55% | 1009.6 hPa | 0 mm | - | - | - |
| 1787671520 | 26.67° C | 54% | 1009.6 hPa | 0 mm | - | - | - |
| 1787671160 | 27.22° C | 52% | 1009.5 hPa | 0 mm | - | - | - |
| 1787670799 | 27.22° C | 49% | 1009.4 hPa | 0 mm | - | - | - |
| 1787670439 | 27.78° C | 48% | 1009.4 hPa | 0 mm | - | - | - |
| 1787670079 | 27.22° C | 50% | 1009.5 hPa | 0 mm | - | - | - |
* Rain latest hour (hover to see other rain measurements)
** Current wind speed in m/s (hover to see current wind gust speed)